Time,TemperatureF,DewpointF,PressureIn,WindDirection,WindDirectionDegrees,WindSpeedMPH,WindSpeedGustMPH,Humidity,HourlyPrecipIn,Conditions,Clouds,dailyrainin,SoftwareType,DateUTC
2013-04-07 00:00:00,55.0,48.3,29.65,NW,307,7.0,16.0,78,0.00,,---,0.00,VWS V14.00,2013-04-07 05:00:00,
2013-04-07 00:01:00,55.0,48.3,29.65,NW,307,6.0,7.0,78,0.00,,---,0.00,VWS V14.00,2013-04-07 05:01:00,
2013-04-07 00:02:00,54.9,48.2,29.65,WNW,299,7.0,9.0,78,0.00,,---,0.00,VWS V14.00,2013-04-07 05:02:00,
2013-04-07 00:03:00,54.8,48.1,29.65,WNW,302,4.0,9.0,78,0.00,,---,0.00,VWS V14.00,2013-04-07 05:03:00,
2013-04-07 00:04:00,54.7,48.0,29.65,NW,309,11.0,11.0,78,0.00,,---,0.00,VWS V14.00,2013-04-07 05:04:00,
2013-04-07 00:05:00,54.7,48.3,29.65,WNW,297,8.0,12.0,79,0.00,,---,0.00,VWS V14.00,2013-04-07 05:05:00,
2013-04-07 00:06:00,54.6,48.2,29.65,WNW,283,9.0,12.0,79,0.00,,---,0.00,VWS V14.00,2013-04-07 05:06:00,
2013-04-07 00:07:00,54.5,48.1,29.65,WNW,283,6.0,12.0,79,0.00,,---,0.00,VWS V14.00,2013-04-07 05:07:00,
2013-04-07 00:08:00,54.5,48.1,29.65,WNW,302,8.0,12.0,79,0.00,,---,0.00,VWS V14.00,2013-04-07 05:08:00,
2013-04-07 00:09:00,54.5,48.1,29.65,WNW,289,8.0,12.0,79,0.00,,---,0.00,VWS V14.00,2013-04-07 05:09:00,
2013-04-07 00:10:00,54.5,48.1,29.65,WNW,300,9.0,12.0,79,0.00,,---,0.00,VWS V14.00,2013-04-07 05:10:00,
2013-04-07 00:11:00,54.4,48.0,29.65,WNW,288,9.0,12.0,79,0.00,,---,0.00,VWS V14.00,2013-04-07 05:11:00,
2013-04-07 00:12:00,54.4,48.0,29.65,NW,304,9.0,12.0,79,0.00,,---,0.00,VWS V14.00,2013-04-07 05:12:00,
2013-04-07 00:13:00,54.4,48.0,29.65,WNW,293,9.0,12.0,79,0.00,,---,0.00,VWS V14.00,2013-04-07 05:13:00,
2013-04-07 00:14:00,54.3,47.9,29.65,WNW,286,6.0,12.0,79,0.00,,---,0.00,VWS V14.00,2013-04-07 05:14:00,
2013-04-07 00:15:00,54.3,47.9,29.66,WNW,285,7.0,12.0,79,0.00,,---,0.00,VWS V14.00,2013-04-07 05:15:00,
2013-04-07 00:16:00,54.3,47.9,29.66,WNW,285,6.0,12.0,79,0.00,,---,0.00,VWS V14.00,2013-04-07 05:16:00,
2013-04-07 00:17:00,54.2,48.2,29.66,WNW,288,5.0,12.0,80,0.00,,---,0.00,VWS V14.00,2013-04-07 05:17:00,
2013-04-07 00:18:00,54.2,48.2,29.66,WNW,293,7.0,12.0,80,0.00,,---,0.00,VWS V14.00,2013-04-07 05:18:00,
2013-04-07 00:19:00,54.1,48.1,29.66,WNW,285,4.0,13.0,80,0.00,,---,0.00,VWS V14.00,2013-04-07 05:19:00,
2013-04-07 00:20:00,54.1,48.1,29.66,WNW,294,2.0,13.0,80,0.00,,---,0.00,VWS V14.00,2013-04-07 05:20:00,
2013-04-07 00:21:00,54.0,47.6,29.66,WNW,290,6.0,13.0,79,0.00,,---,0.00,VWS V14.00,2013-04-07 05:21:00,
2013-04-07 00:22:00,54.0,47.6,29.66,NW,309,6.0,13.0,79,0.00,,---,0.00,VWS V14.00,2013-04-07 05:22:00,
2013-04-07 00:23:00,53.9,47.5,29.66,WNW,282,7.0,13.0,79,0.00,,---,0.00,VWS V14.00,2013-04-07 05:23:00,
2013-04-07 00:24:00,53.8,47.5,29.66,WNW,288,9.0,13.0,79,0.00,,---,0.00,VWS V14.00,2013-04-07 05:24:00,
2013-04-07 00:25:00,53.8,47.5,29.66,WNW,293,8.0,13.0,79,0.00,,---,0.00,VWS V14.00,2013-04-07 05:25:00,
2013-04-07 00:26:00,53.7,47.3,29.66,WNW,293,6.0,13.0,79,0.00,,---,0.00,VWS V14.00,2013-04-07 05:26:00,
2013-04-07 00:27:00,53.6,47.3,29.66,WNW,292,9.0,13.0,79,0.00,,---,0.00,VWS V14.00,2013-04-07 05:27:00,
2013-04-07 00:28:00,53.6,47.3,29.66,West,279,5.0,13.0,79,0.00,,---,0.00,VWS V14.00,2013-04-07 05:28:00,
2013-04-07 00:29:00,53.6,47.3,29.66,WNW,289,5.0,13.0,79,0.00,,---,0.00,VWS V14.00,2013-04-07 05:29:00,
2013-04-07 00:30:00,53.5,47.2,29.66,WNW,288,6.0,13.0,79,0.00,,---,0.00,VWS V14.00,2013-04-07 05:30:00,
2013-04-07 00:31:00,53.5,47.2,29.66,WNW,288,11.0,14.0,79,0.00,,---,0.00,VWS V14.00,2013-04-07 05:31:00,
2013-04-07 00:32:00,53.5,47.2,29.66,WNW,298,9.0,14.0,79,0.00,,---,0.00,VWS V14.00,2013-04-07 05:32:00,
2013-04-07 00:33:00,53.5,47.2,29.66,WNW,285,9.0,16.0,79,0.00,,---,0.00,VWS V14.00,2013-04-07 05:33:00,
2013-04-07 00:34:00,53.4,47.1,29.66,WNW,295,8.0,16.0,79,0.00,,---,0.00,VWS V14.00,2013-04-07 05:34:00,
2013-04-07 00:35:00,53.4,47.1,29.66,WNW,292,12.0,16.0,79,0.00,,---,0.00,VWS V14.00,2013-04-07 05:35:00,
2013-04-07 00:36:00,53.4,47.1,29.66,WNW,294,15.0,16.0,79,0.00,,---,0.00,VWS V14.00,2013-04-07 05:36:00,
2013-04-07 00:37:00,53.3,46.6,29.66,WNW,296,5.0,16.0,78,0.00,,---,0.00,VWS V14.00,2013-04-07 05:37:00,
2013-04-07 00:38:00,53.3,46.6,29.66,WNW,300,13.0,19.0,78,0.00,,---,0.00,VWS V14.00,2013-04-07 05:38:00,
2013-04-07 00:39:00,53.3,46.6,29.66,NW,309,10.0,19.0,78,0.00,,---,0.00,VWS V14.00,2013-04-07 05:39:00,
2013-04-07 00:40:00,53.2,46.5,29.66,WNW,288,8.0,19.0,78,0.00,,---,0.00,VWS V14.00,2013-04-07 05:40:00,
2013-04-07 00:41:00,53.2,46.5,29.66,NW,310,11.0,19.0,78,0.00,,---,0.00,VWS V14.00,2013-04-07 05:41:00,
2013-04-07 00:42:00,53.1,46.4,29.66,WNW,298,12.0,19.0,78,0.00,,---,0.00,VWS V14.00,2013-04-07 05:42:00,
2013-04-07 00:43:00,53.0,46.3,29.66,WNW,285,11.0,19.0,78,0.00,,---,0.00,VWS V14.00,2013-04-07 05:43:00,
2013-04-07 00:44:00,53.0,46.3,29.66,WNW,284,14.0,19.0,78,0.00,,---,0.00,VWS V14.00,2013-04-07 05:44:00,
2013-04-07 00:45:00,53.0,46.3,29.68,WNW,300,7.0,19.0,78,0.00,,---,0.00,VWS V14.00,2013-04-07 05:45:00,
2013-04-07 00:46:00,52.9,46.2,29.68,WNW,301,9.0,19.0,78,0.00,,---,0.00,VWS V14.00,2013-04-07 05:46:00,
2013-04-07 00:47:00,52.9,46.2,29.68,WNW,287,15.0,19.0,78,0.00,,---,0.00,VWS V14.00,2013-04-07 05:47:00,
2013-04-07 00:48:00,52.8,46.1,29.68,NW,304,10.0,19.0,78,0.00,,---,0.00,VWS V14.00,2013-04-07 05:48:00,
2013-04-07 00:49:00,52.8,46.1,29.68,NW,305,8.0,19.0,78,0.00,,---,0.00,VWS V14.00,2013-04-07 05:49:00,
2013-04-07 00:50:00,52.7,46.4,29.68,WNW,282,9.0,19.0,79,0.00,,---,0.00,VWS V14.00,2013-04-07 05:50:00,
2013-04-07 00:51:00,52.7,46.0,29.68,WNW,294,11.0,19.0,78,0.00,,---,0.00,VWS V14.00,2013-04-07 05:51:00,
2013-04-07 00:52:00,52.6,46.0,29.68,WNW,293,8.0,19.0,78,0.00,,---,0.00,VWS V14.00,2013-04-07 05:52:00,
2013-04-07 00:53:00,52.5,45.8,29.68,WNW,290,7.0,19.0,78,0.00,,---,0.00,VWS V14.00,2013-04-07 05:53:00,
2013-04-07 00:54:00,52.5,46.2,29.68,WNW,285,9.0,19.0,79,0.00,,---,0.00,VWS V14.00,2013-04-07 05:54:00,
2013-04-07 00:55:00,52.5,46.2,29.68,WNW,288,7.0,19.0,79,0.00,,---,0.00,VWS V14.00,2013-04-07 05:55:00,
2013-04-07 00:56:00,52.4,46.1,29.68,WNW,291,6.0,19.0,79,0.00,,---,0.00,VWS V14.00,2013-04-07 05:56:00,
2013-04-07 00:57:00,52.4,46.1,29.68,West,276,6.0,19.0,79,0.00,,---,0.00,VWS V14.00,2013-04-07 05:57:00,
2013-04-07 00:58:00,52.4,46.1,29.68,NW,306,11.0,19.0,79,0.00,,---,0.00,VWS V14.00,2013-04-07 05:58:00,
2013-04-07 00:59:00,52.4,46.1,29.68,West,278,9.0,19.0,79,0.00,,---,0.00,VWS V14.00,2013-04-07 05:59:00,
2013-04-07 01:00:00,52.3,45.7,29.68,WNW,296,6.0,19.0,78,0.00,,---,0.00,VWS V14.00,2013-04-07 06:00:00,
2013-04-07 01:01:00,52.3,45.7,29.68,WNW,294,11.0,14.0,78,0.00,,---,0.00,VWS V14.00,2013-04-07 06:01:00,
2013-04-07 01:02:00,52.3,46.0,29.68,WNW,297,7.0,14.0,79,0.00,,---,0.00,VWS V14.00,2013-04-07 06:02:00,
2013-04-07 01:03:00,52.2,45.9,29.68,WNW,295,11.0,14.0,79,0.00,,---,0.00,VWS V14.00,2013-04-07 06:03:00,
2013-04-07 01:04:00,52.2,45.9,29.68,WNW,302,7.0,14.0,79,0.00,,---,0.00,VWS V14.00,2013-04-07 06:04:00,
2013-04-07 01:05:00,52.1,45.8,29.68,NW,304,5.0,14.0,79,0.00,,---,0.00,VWS V14.00,2013-04-07 06:05:00,
2013-04-07 01:06:00,52.0,45.7,29.68,WNW,299,11.0,14.0,79,0.00,,---,0.00,VWS V14.00,2013-04-07 06:06:00,
2013-04-07 01:07:00,51.9,45.6,29.68,NW,306,9.0,14.0,79,0.00,,---,0.00,VWS V14.00,2013-04-07 06:07:00,
2013-04-07 01:08:00,51.8,45.5,29.68,NW,308,9.0,14.0,79,0.00,,---,0.00,VWS V14.00,2013-04-07 06:08:00,
2013-04-07 01:09:00,51.8,45.5,29.68,WNW,294,7.0,14.0,79,0.00,,---,0.00,VWS V14.00,2013-04-07 06:09:00,
2013-04-07 01:10:00,51.7,45.4,29.68,NW,310,7.0,14.0,79,0.00,,---,0.00,VWS V14.00,2013-04-07 06:10:00,
2013-04-07 01:11:00,51.6,45.3,29.68,WNW,290,7.0,14.0,79,0.00,,---,0.00,VWS V14.00,2013-04-07 06:11:00,
2013-04-07 01:12:00,51.6,45.3,29.68,WNW,288,12.0,14.0,79,0.00,,---,0.00,VWS V14.00,2013-04-07 06:12:00,
2013-04-07 01:13:00,51.5,45.2,29.68,NW,307,9.0,14.0,79,0.00,,---,0.00,VWS V14.00,2013-04-07 06:13:00,
2013-04-07 01:14:00,51.5,45.5,29.68,NW,311,7.0,14.0,80,0.00,,---,0.00,VWS V14.00,2013-04-07 06:14:00,
2013-04-07 01:15:00,51.5,45.5,29.69,NW,307,9.0,14.0,80,0.00,,---,0.00,VWS V14.00,2013-04-07 06:15:00,
2013-04-07 01:16:00,51.5,45.5,29.69,WNW,297,10.0,14.0,80,0.00,,---,0.00,VWS V14.00,2013-04-07 06:16:00,
2013-04-07 01:17:00,51.5,45.5,29.69,WNW,290,9.0,14.0,80,0.00,,---,0.00,VWS V14.00,2013-04-07 06:17:00,
2013-04-07 01:18:00,51.4,45.5,29.69,WNW,290,4.0,14.0,80,0.00,,---,0.00,VWS V14.00,2013-04-07 06:18:00,
2013-04-07 01:19:00,51.4,45.5,29.69,WNW,285,7.0,14.0,80,0.00,,---,0.00,VWS V14.00,2013-04-07 06:19:00,
2013-04-07 01:20:00,51.4,45.5,29.69,WNW,285,6.0,14.0,80,0.00,,---,0.00,VWS V14.00,2013-04-07 06:20:00,
2013-04-07 01:21:00,51.4,45.5,29.69,West,275,5.0,14.0,80,0.00,,---,0.00,VWS V14.00,2013-04-07 06:21:00,
2013-04-07 01:22:00,51.3,45.3,29.69,WNW,290,6.0,14.0,80,0.00,,---,0.00,VWS V14.00,2013-04-07 06:22:00,
2013-04-07 01:23:00,51.3,45.3,29.69,WNW,294,8.0,14.0,80,0.00,,---,0.00,VWS V14.00,2013-04-07 06:23:00,
2013-04-07 01:24:00,51.2,45.2,29.69,NW,314,9.0,14.0,80,0.00,,---,0.00,VWS V14.00,2013-04-07 06:24:00,
2013-04-07 01:25:00,51.2,45.2,29.69,WNW,298,8.0,14.0,80,0.00,,---,0.00,VWS V14.00,2013-04-07 06:25:00,
2013-04-07 01:26:00,51.1,45.2,29.69,WNW,293,7.0,14.0,80,0.00,,---,0.00,VWS V14.00,2013-04-07 06:26:00,
2013-04-07 01:27:00,51.0,45.1,29.69,WNW,295,8.0,14.0,80,0.00,,---,0.00,VWS V14.00,2013-04-07 06:27:00,
2013-04-07 01:28:00,50.9,45.0,29.69,WNW,300,10.0,14.0,80,0.00,,---,0.00,VWS V14.00,2013-04-07 06:28:00,
2013-04-07 01:29:00,50.8,44.9,29.69,NW,311,12.0,14.0,80,0.00,,---,0.00,VWS V14.00,2013-04-07 06:29:00,
2013-04-07 01:30:00,50.8,45.2,29.69,WNW,301,7.0,15.0,81,0.00,,---,0.00,VWS V14.00,2013-04-07 06:30:00,
2013-04-07 01:31:00,50.7,45.1,29.69,NW,309,7.0,13.0,81,0.00,,---,0.00,VWS V14.00,2013-04-07 06:31:00,
2013-04-07 01:32:00,50.7,45.1,29.69,NW,307,10.0,13.0,81,0.00,,---,0.00,VWS V14.00,2013-04-07 06:32:00,
2013-04-07 01:33:00,50.6,45.0,29.69,NW,307,7.0,13.0,81,0.00,,---,0.00,VWS V14.00,2013-04-07 06:33:00,
2013-04-07 01:34:00,50.6,45.0,29.69,NW,315,9.0,14.0,81,0.00,,---,0.00,VWS V14.00,2013-04-07 06:34:00,
2013-04-07 01:35:00,50.5,44.9,29.69,NW,311,12.0,14.0,81,0.00,,---,0.00,VWS V14.00,2013-04-07 06:35:00,
2013-04-07 01:36:00,50.5,44.9,29.69,WNW,301,14.0,15.0,81,0.00,,---,0.00,VWS V14.00,2013-04-07 06:36:00,
2013-04-07 01:37:00,50.4,44.8,29.69,NW,311,11.0,15.0,81,0.00,,---,0.00,VWS V14.00,2013-04-07 06:37:00,
2013-04-07 01:38:00,50.4,44.8,29.69,NW,307,18.0,18.0,81,0.00,,---,0.00,VWS V14.00,2013-04-07 06:38:00,
2013-04-07 01:39:00,50.3,44.7,29.69,NW,309,10.0,18.0,81,0.00,,---,0.00,VWS V14.00,2013-04-07 06:39:00,
2013-04-07 01:40:00,50.3,45.0,29.69,WNW,300,12.0,18.0,82,0.00,,---,0.00,VWS V14.00,2013-04-07 06:40:00,
2013-04-07 01:41:00,50.2,44.9,29.69,NW,311,10.0,18.0,82,0.00,,---,0.00,VWS V14.00,2013-04-07 06:41:00,
2013-04-07 01:42:00,50.1,44.8,29.69,NW,314,10.0,18.0,82,0.00,,---,0.00,VWS V14.00,2013-04-07 06:42:00,
2013-04-07 01:43:00,50.1,44.8,29.69,NNW,330,12.0,18.0,82,0.00,,---,0.00,VWS V14.00,2013-04-07 06:43:00,
2013-04-07 01:44:00,50.1,44.8,29.69,WNW,300,14.0,18.0,82,0.00,,---,0.00,VWS V14.00,2013-04-07 06:44:00,
2013-04-07 01:45:00,50.0,44.7,29.70,NNW,331,14.0,18.0,82,0.00,,---,0.00,VWS V14.00,2013-04-07 06:45:00,
2013-04-07 01:46:00,50.0,44.7,29.70,NW,326,11.0,18.0,82,0.00,,---,0.00,VWS V14.00,2013-04-07 06:46:00,
2013-04-07 01:47:00,50.0,44.7,29.70,NW,322,8.0,18.0,82,0.00,,---,0.00,VWS V14.00,2013-04-07 06:47:00,
2013-04-07 01:48:00,50.0,44.7,29.70,NW,308,10.0,18.0,82,0.00,,---,0.00,VWS V14.00,2013-04-07 06:48:00,
2013-04-07 01:49:00,49.9,44.6,29.70,NW,326,9.0,18.0,82,0.00,,---,0.00,VWS V14.00,2013-04-07 06:49:00,
2013-04-07 01:50:00,49.9,44.6,29.70,NW,314,9.0,18.0,82,0.00,,---,0.00,VWS V14.00,2013-04-07 06:50:00,
2013-04-07 01:51:00,49.8,44.5,29.70,NW,316,9.0,18.0,82,0.00,,---,0.00,VWS V14.00,2013-04-07 06:51:00,
2013-04-07 01:52:00,49.8,44.5,29.70,NW,323,12.0,18.0,82,0.00,,---,0.00,VWS V14.00,2013-04-07 06:52:00,
2013-04-07 01:53:00,49.7,44.4,29.70,NW,309,9.0,18.0,82,0.00,,---,0.00,VWS V14.00,2013-04-07 06:53:00,
2013-04-07 01:54:00,49.6,44.7,29.70,NW,306,9.0,18.0,83,0.00,,---,0.00,VWS V14.00,2013-04-07 06:54:00,
2013-04-07 01:55:00,49.6,44.7,29.70,WNW,301,8.0,18.0,83,0.00,,---,0.00,VWS V14.00,2013-04-07 06:55:00,
2013-04-07 01:56:00,49.5,44.2,29.70,WNW,294,7.0,18.0,82,0.00,,---,0.00,VWS V14.00,2013-04-07 06:56:00,
2013-04-07 01:57:00,49.4,44.1,29.70,NW,307,7.0,18.0,82,0.00,,---,0.00,VWS V14.00,2013-04-07 06:57:00,
2013-04-07 01:58:00,49.3,44.4,29.70,WNW,295,8.0,18.0,83,0.00,,---,0.00,VWS V14.00,2013-04-07 06:58:00,
2013-04-07 01:59:00,49.2,44.3,29.70,NW,315,8.0,18.0,83,0.00,,---,0.00,VWS V14.00,2013-04-07 06:59:00,
2013-04-07 02:12:00,49.2,44.3,29.70,NW,315,11.0,18.0,83,0.00,,---,0.00,VWS V14.00,2013-04-07 07:12:00,
2013-04-07 02:17:00,49.0,44.1,29.70,WNW,300,9.0,12.0,83,0.00,,---,0.00,VWS V14.00,2013-04-07 07:17:00,
2013-04-07 02:22:00,48.8,44.2,29.70,NW,314,8.0,12.0,84,0.00,,---,0.00,VWS V14.00,2013-04-07 07:22:00,
2013-04-07 02:27:00,48.7,44.1,29.70,NW,308,10.0,14.0,84,0.00,,---,0.00,VWS V14.00,2013-04-07 07:27:00,
2013-04-07 02:32:00,48.5,43.9,29.70,WNW,302,8.0,14.0,84,0.00,,---,0.00,VWS V14.00,2013-04-07 07:32:00,
2013-04-07 02:37:00,48.2,43.9,29.70,WNW,297,8.0,14.0,85,0.00,,---,0.00,VWS V14.00,2013-04-07 07:37:00,
2013-04-07 02:42:00,48.1,43.8,29.70,NW,308,8.0,9.0,85,0.00,,---,0.00,VWS V14.00,2013-04-07 07:42:00,
2013-04-07 02:47:00,47.8,43.5,29.70,WNW,296,7.0,12.0,85,0.00,,---,0.00,VWS V14.00,2013-04-07 07:47:00,
2013-04-07 02:52:00,47.6,43.3,29.70,NW,311,10.0,12.0,85,0.00,,---,0.00,VWS V14.00,2013-04-07 07:52:00,
2013-04-07 02:57:00,47.4,43.4,29.70,NW,304,8.0,12.0,86,0.00,,---,0.00,VWS V14.00,2013-04-07 07:57:00,
2013-04-07 03:00:00,49.2,44.3,29.70,NW,315,10.0,18.0,83,0.00,,---,0.00,VWS V14.00,2013-04-07 08:00:00,
2013-04-07 03:02:00,47.3,43.3,29.70,NW,304,10.0,13.0,86,0.00,,---,0.00,VWS V14.00,2013-04-07 08:02:00,
2013-04-07 03:07:00,47.1,43.1,29.70,WNW,303,9.0,13.0,86,0.00,,---,0.00,VWS V14.00,2013-04-07 08:07:00,
2013-04-07 03:12:00,47.0,43.3,29.71,NW,323,9.0,12.0,87,0.00,,---,0.00,VWS V14.00,2013-04-07 08:12:00,
2013-04-07 03:17:00,46.9,43.2,29.71,NNW,328,7.0,12.0,87,0.00,,---,0.00,VWS V14.00,2013-04-07 08:17:00,
2013-04-07 03:22:00,46.8,42.8,29.71,NW,307,7.0,12.0,86,0.00,,---,0.00,VWS V14.00,2013-04-07 08:22:00,
2013-04-07 03:27:00,46.7,43.0,29.72,NW,321,6.0,12.0,87,0.00,,---,0.00,VWS V14.00,2013-04-07 08:27:00,
2013-04-07 03:30:00,48.1,43.8,29.70,NW,315,8.0,14.0,85,0.00,,---,0.00,VWS V14.00,2013-04-07 08:30:00,
2013-04-07 03:32:00,46.5,42.8,29.72,NW,326,7.0,13.0,87,0.00,,---,0.00,VWS V14.00,2013-04-07 08:32:00,
2013-04-07 03:37:00,46.2,42.5,29.72,NW,309,4.0,13.0,87,0.00,,---,0.00,VWS V14.00,2013-04-07 08:37:00,
2013-04-07 03:42:00,46.0,42.3,29.72,NW,307,5.0,5.0,87,0.00,,---,0.00,VWS V14.00,2013-04-07 08:42:00,
2013-04-07 03:47:00,45.8,42.2,29.72,NW,307,4.0,7.0,87,0.00,,---,0.00,VWS V14.00,2013-04-07 08:47:00,
2013-04-07 03:52:00,45.5,41.9,29.72,NW,307,0.0,7.0,87,0.00,,---,0.00,VWS V14.00,2013-04-07 08:52:00,
2013-04-07 03:57:00,45.3,42.0,29.73,NW,307,6.0,7.0,88,0.00,,---,0.00,VWS V14.00,2013-04-07 08:57:00,
2013-04-07 04:00:00,47.0,43.3,29.71,NW,315,8.0,13.0,87,0.00,,---,0.00,VWS V14.00,2013-04-07 09:00:00,
2013-04-07 04:02:00,45.2,41.9,29.73,NW,320,3.0,7.0,88,0.00,,---,0.00,VWS V14.00,2013-04-07 09:02:00,
2013-04-07 04:07:00,45.2,42.2,29.73,WNW,300,4.0,7.0,89,0.00,,---,0.00,VWS V14.00,2013-04-07 09:07:00,
2013-04-07 04:12:00,45.1,42.1,29.74,WNW,290,2.0,2.0,89,0.00,,---,0.00,VWS V14.00,2013-04-07 09:12:00,
2013-04-07 04:17:00,45.0,42.0,29.74,NW,308,5.0,8.0,89,0.00,,---,0.00,VWS V14.00,2013-04-07 09:17:00,
2013-04-07 04:22:00,44.9,41.9,29.74,WNW,303,7.0,8.0,89,0.00,,---,0.00,VWS V14.00,2013-04-07 09:22:00,
2013-04-07 04:27:00,44.7,41.7,29.75,NW,310,4.0,8.0,89,0.00,,---,0.00,VWS V14.00,2013-04-07 09:27:00,
2013-04-07 04:30:00,46.1,42.5,29.72,NW,315,7.0,15.0,87,0.00,,---,0.00,VWS V14.00,2013-04-07 09:30:00,
2013-04-07 04:32:00,44.5,41.5,29.75,WNW,295,4.0,8.0,89,0.00,,---,0.00,VWS V14.00,2013-04-07 09:32:00,
2013-04-07 04:37:00,44.3,41.6,29.75,WNW,295,2.0,8.0,90,0.00,,---,0.00,VWS V14.00,2013-04-07 09:37:00,
2013-04-07 04:43:00,44.3,41.6,29.76,WNW,287,6.0,7.0,90,0.00,,---,0.00,VWS V14.00,2013-04-07 09:43:00,
2013-04-07 04:48:00,44.3,41.6,29.76,WNW,287,4.0,8.0,90,0.00,,---,0.00,VWS V14.00,2013-04-07 09:48:00,
2013-04-07 04:53:00,44.2,41.5,29.76,West,281,4.0,11.0,90,0.00,,---,0.00,VWS V14.00,2013-04-07 09:53:00,
2013-04-07 04:58:00,44.1,41.4,29.77,West,281,4.0,11.0,90,0.00,,---,0.00,VWS V14.00,2013-04-07 09:58:00,
2013-04-07 05:00:00,45.1,42.1,29.74,NW,315,3.0,9.0,89,0.00,,---,0.00,VWS V14.00,2013-04-07 10:00:00,
2013-04-07 05:03:00,44.0,41.3,29.77,West,273,4.0,11.0,90,0.00,,---,0.00,VWS V14.00,2013-04-07 10:03:00,
2013-04-07 05:08:00,43.9,41.5,29.77,West,276,4.0,11.0,91,0.00,,---,0.00,VWS V14.00,2013-04-07 10:08:00,
2013-04-07 05:13:00,43.8,41.3,29.78,West,281,0.0,5.0,91,0.00,,---,0.00,VWS V14.00,2013-04-07 10:13:00,
2013-04-07 05:18:00,43.7,41.2,29.78,NW,305,0.0,7.0,91,0.00,,---,0.00,VWS V14.00,2013-04-07 10:18:00,
2013-04-07 05:23:00,43.5,41.0,29.78,NW,305,0.0,7.0,91,0.00,,---,0.00,VWS V14.00,2013-04-07 10:23:00,
2013-04-07 05:28:00,43.4,41.0,29.78,WNW,299,0.0,7.0,91,0.00,,---,0.00,VWS V14.00,2013-04-07 10:28:00,
2013-04-07 05:30:00,44.3,41.6,29.76,WNW,292,4.0,9.0,90,0.00,,---,0.00,VWS V14.00,2013-04-07 10:30:00,
2013-04-07 05:33:00,43.4,41.0,29.78,WNW,299,0.0,7.0,91,0.00,,---,0.00,VWS V14.00,2013-04-07 10:33:00,
2013-04-07 05:38:00,43.3,40.8,29.78,WNW,299,0.0,7.0,91,0.00,,---,0.00,VWS V14.00,2013-04-07 10:38:00,
2013-04-07 05:43:00,43.2,40.8,29.78,WNW,284,0.0,0.0,91,0.00,,---,0.00,VWS V14.00,2013-04-07 10:43:00,
2013-04-07 05:48:00,43.1,40.7,29.78,WNW,284,0.0,2.0,91,0.00,,---,0.00,VWS V14.00,2013-04-07 10:48:00,
2013-04-07 05:53:00,43.1,40.7,29.78,WNW,284,0.0,4.0,91,0.00,,---,0.00,VWS V14.00,2013-04-07 10:53:00,
2013-04-07 05:57:00,43.0,40.6,29.79,WNW,284,0.0,4.0,91,0.00,,---,0.00,VWS V14.00,2013-04-07 10:57:00,
2013-04-07 06:00:00,43.8,41.3,29.78,West,270,4.0,11.0,91,0.00,,---,0.00,VWS V14.00,2013-04-07 11:00:00,
2013-04-07 06:02:00,42.9,40.5,29.79,WNW,284,0.0,4.0,91,0.00,,---,0.00,VWS V14.00,2013-04-07 11:02:00,
2013-04-07 06:07:00,42.7,40.3,29.79,WNW,284,0.0,4.0,91,0.00,,---,0.00,VWS V14.00,2013-04-07 11:07:00,
2013-04-07 06:12:00,42.6,40.2,29.80,WNW,284,0.0,0.0,91,0.00,,---,0.00,VWS V14.00,2013-04-07 11:12:00,
2013-04-07 06:17:00,42.5,40.3,29.80,WNW,284,0.0,4.0,92,0.00,,---,0.00,VWS V14.00,2013-04-07 11:17:00,
2013-04-07 06:22:00,42.5,40.3,29.80,WSW,255,0.0,7.0,92,0.00,,---,0.00,VWS V14.00,2013-04-07 11:22:00,
2013-04-07 06:27:00,42.5,40.3,29.81,WSW,255,4.0,7.0,92,0.00,,---,0.00,VWS V14.00,2013-04-07 11:27:00,
2013-04-07 06:30:00,43.1,40.7,29.78,WNW,292,0.0,7.0,91,0.00,,---,0.00,VWS V14.00,2013-04-07 11:30:00,
2013-04-07 06:32:00,42.4,40.2,29.81,WSW,250,4.0,7.0,92,0.00,,---,0.00,VWS V14.00,2013-04-07 11:32:00,
2013-04-07 06:37:00,42.3,40.2,29.81,WSW,250,1.0,7.0,92,0.00,,---,0.00,VWS V14.00,2013-04-07 11:37:00,
2013-04-07 06:42:00,42.1,40.0,29.82,WSW,250,0.0,0.0,92,0.00,,---,0.00,VWS V14.00,2013-04-07 11:42:00,
2013-04-07 06:47:00,41.9,39.8,29.82,WSW,250,0.0,4.0,92,0.00,,---,0.00,VWS V14.00,2013-04-07 11:47:00,
2013-04-07 06:52:00,41.8,39.7,29.82,WSW,250,0.0,4.0,92,0.00,,---,0.00,VWS V14.00,2013-04-07 11:52:00,
2013-04-07 06:58:00,41.8,39.7,29.83,WSW,250,0.0,4.0,92,0.00,,---,0.00,VWS V14.00,2013-04-07 11:58:00,
2013-04-07 07:00:00,42.6,40.2,29.80,WNW,292,0.0,4.0,91,0.00,,---,0.00,VWS V14.00,2013-04-07 12:00:00,
2013-04-07 07:03:00,41.7,39.5,29.83,WSW,251,0.0,5.0,92,0.00,,---,0.00,VWS V14.00,2013-04-07 12:03:00,
2013-04-07 07:08:00,41.6,39.5,29.83,WSW,251,0.0,5.0,92,0.00,,---,0.00,VWS V14.00,2013-04-07 12:08:00,
2013-04-07 07:13:00,41.6,39.7,29.83,WSW,253,2.0,5.0,93,0.00,,---,0.00,VWS V14.00,2013-04-07 12:13:00,
2013-04-07 07:18:00,41.6,39.7,29.83,WSW,253,0.0,5.0,93,0.00,,---,0.00,VWS V14.00,2013-04-07 12:18:00,
2013-04-07 07:23:00,41.8,39.9,29.83,WSW,257,4.0,6.0,93,0.00,,---,0.00,VWS V14.00,2013-04-07 12:23:00,
2013-04-07 07:27:00,41.9,40.0,29.83,WSW,257,0.0,6.0,93,0.00,,---,0.00,VWS V14.00,2013-04-07 12:27:00,
2013-04-07 07:30:00,42.1,40.0,29.82,WSW,248,2.0,7.0,92,0.00,,---,0.00,VWS V14.00,2013-04-07 12:30:00,
2013-04-07 07:33:00,42.1,40.2,29.83,WSW,257,0.0,6.0,93,0.00,,---,0.00,VWS V14.00,2013-04-07 12:33:00,
2013-04-07 07:38:00,42.2,40.3,29.83,WSW,257,0.0,6.0,93,0.00,,---,0.00,VWS V14.00,2013-04-07 12:38:00,
2013-04-07 07:43:00,42.5,40.6,29.85,West,263,0.0,4.0,93,0.00,,---,0.00,VWS V14.00,2013-04-07 12:43:00,
2013-04-07 07:48:00,42.7,40.8,29.85,WNW,296,8.0,8.0,93,0.00,,---,0.00,VWS V14.00,2013-04-07 12:48:00,
2013-04-07 07:53:00,42.9,41.0,29.85,WNW,292,5.0,8.0,93,0.00,,---,0.00,VWS V14.00,2013-04-07 12:53:00,
2013-04-07 07:58:00,43.3,41.4,29.85,WNW,288,5.0,8.0,93,0.00,,---,0.00,VWS V14.00,2013-04-07 12:58:00,
2013-04-07 08:00:00,41.6,39.7,29.83,WSW,248,0.0,5.0,93,0.00,,---,0.00,VWS V14.00,2013-04-07 13:00:00,
2013-04-07 08:03:00,43.5,41.6,29.85,NW,311,7.0,8.0,93,0.00,,---,0.00,VWS V14.00,2013-04-07 13:03:00,
2013-04-07 08:08:00,43.9,41.7,29.85,WNW,302,0.0,8.0,92,0.00,,---,0.00,VWS V14.00,2013-04-07 13:08:00,
2013-04-07 08:13:00,44.1,41.7,29.85,NW,304,7.0,10.0,91,0.00,,---,0.00,VWS V14.00,2013-04-07 13:13:00,
2013-04-07 08:18:00,44.1,41.7,29.85,NW,322,6.0,10.0,91,0.00,,---,0.00,VWS V14.00,2013-04-07 13:18:00,
2013-04-07 08:23:00,44.4,41.7,29.85,NNW,345,7.0,11.0,90,0.00,,---,0.00,VWS V14.00,2013-04-07 13:23:00,
2013-04-07 08:28:00,44.9,41.6,29.86,NW,323,7.0,11.0,88,0.00,,---,0.00,VWS V14.00,2013-04-07 13:28:00,
2013-04-07 08:30:00,42.4,40.5,29.85,WSW,248,1.0,6.0,93,0.00,,---,0.00,VWS V14.00,2013-04-07 13:30:00,
2013-04-07 08:33:00,44.9,41.6,29.86,NNW,331,5.0,11.0,88,0.00,,---,0.00,VWS V14.00,2013-04-07 13:33:00,
2013-04-07 08:38:00,45.1,41.8,29.86,NNW,331,4.0,11.0,88,0.00,,---,0.00,VWS V14.00,2013-04-07 13:38:00,
2013-04-07 08:43:00,45.2,41.9,29.86,NW,306,6.0,7.0,88,0.00,,---,0.00,VWS V14.00,2013-04-07 13:43:00,
2013-04-07 08:48:00,45.2,41.6,29.86,NW,306,4.0,9.0,87,0.00,,---,0.00,VWS V14.00,2013-04-07 13:48:00,
2013-04-07 08:53:00,45.8,42.2,29.86,WNW,303,7.0,9.0,87,0.00,,---,0.00,VWS V14.00,2013-04-07 13:53:00,
2013-04-07 08:58:00,45.8,41.5,29.86,NW,322,6.0,9.0,85,0.00,,---,0.00,VWS V14.00,2013-04-07 13:58:00,
2013-04-07 09:00:00,44.1,41.9,29.85,WNW,292,3.0,8.0,92,0.00,,---,0.00,VWS V14.00,2013-04-07 14:00:00,
2013-04-07 09:03:00,46.4,42.1,29.86,NNW,329,6.0,10.0,85,0.00,,---,0.00,VWS V14.00,2013-04-07 14:03:00,
2013-04-07 09:08:00,46.1,41.8,29.86,NNW,340,4.0,10.0,85,0.00,,---,0.00,VWS V14.00,2013-04-07 14:08:00,
2013-04-07 09:13:00,46.5,41.9,29.86,NNW,340,7.0,8.0,84,0.00,,---,0.00,VWS V14.00,2013-04-07 14:13:00,
2013-04-07 09:18:00,47.4,42.8,29.86,NNW,336,6.0,9.0,84,0.00,,---,0.00,VWS V14.00,2013-04-07 14:18:00,
2013-04-07 09:23:00,47.2,42.3,29.86,NNW,338,4.0,9.0,83,0.00,,---,0.00,VWS V14.00,2013-04-07 14:23:00,
2013-04-07 09:28:00,47.4,42.2,29.87,NNW,338,4.0,9.0,82,0.00,,---,0.00,VWS V14.00,2013-04-07 14:28:00,
2013-04-07 09:30:00,45.2,41.6,29.86,NNW,338,7.0,11.0,87,0.00,,---,0.00,VWS V14.00,2013-04-07 14:30:00,
2013-04-07 09:33:00,47.8,42.9,29.87,NW,316,5.0,9.0,83,0.00,,---,0.00,VWS V14.00,2013-04-07 14:33:00,
2013-04-07 09:38:00,47.9,42.7,29.87,NNW,328,6.0,9.0,82,0.00,,---,0.00,VWS V14.00,2013-04-07 14:38:00,
2013-04-07 09:43:00,47.9,42.4,29.88,NNW,335,6.0,6.0,81,0.00,,---,0.00,VWS V14.00,2013-04-07 14:43:00,
2013-04-07 09:48:00,48.4,42.5,29.88,NNW,337,5.0,9.0,80,0.00,,---,0.00,VWS V14.00,2013-04-07 14:48:00,
2013-04-07 09:53:00,48.7,42.5,29.88,North,350,5.0,9.0,79,0.00,,---,0.00,VWS V14.00,2013-04-07 14:53:00,
2013-04-07 09:58:00,49.2,42.6,29.87,North,349,4.0,9.0,78,0.00,,---,0.00,VWS V14.00,2013-04-07 14:58:00,
2013-04-07 10:00:00,46.5,41.9,29.86,NW,315,6.0,10.0,84,0.00,,---,0.00,VWS V14.00,2013-04-07 15:00:00,
2013-04-07 10:03:00,50.2,43.6,29.87,North,349,6.0,9.0,78,0.00,,---,0.00,VWS V14.00,2013-04-07 15:03:00,
2013-04-07 10:08:00,50.1,42.8,29.87,North,359,6.0,9.0,76,0.00,,---,0.00,VWS V14.00,2013-04-07 15:08:00,
2013-04-07 10:13:00,50.2,42.9,29.88,North,8,0.0,7.0,76,0.00,,---,0.00,VWS V14.00,2013-04-07 15:13:00,
2013-04-07 10:18:00,50.8,43.5,29.88,North,359,0.0,7.0,76,0.00,,---,0.00,VWS V14.00,2013-04-07 15:18:00,
2013-04-07 10:23:00,50.8,42.8,29.88,NNW,333,0.0,8.0,74,0.00,,---,0.00,VWS V14.00,2013-04-07 15:23:00,
2013-04-07 10:28:00,51.7,43.3,29.88,North,358,0.0,9.0,73,0.00,,---,0.00,VWS V14.00,2013-04-07 15:28:00,
2013-04-07 10:30:00,47.9,42.4,29.88,NNW,338,4.0,9.0,81,0.00,,---,0.00,VWS V14.00,2013-04-07 15:30:00,
2013-04-07 10:33:00,51.7,43.7,29.88,North,357,0.0,9.0,74,0.00,,---,0.00,VWS V14.00,2013-04-07 15:33:00,
2013-04-07 10:38:00,51.9,43.9,29.88,North,358,5.0,9.0,74,0.00,,---,0.00,VWS V14.00,2013-04-07 15:38:00,
2013-04-07 10:43:00,52.5,44.1,29.88,North,357,4.0,4.0,73,0.00,,---,0.00,VWS V14.00,2013-04-07 15:43:00,
2013-04-07 10:48:00,53.1,43.6,29.88,NNW,338,0.0,4.0,70,0.00,,---,0.00,VWS V14.00,2013-04-07 15:48:00,
2013-04-07 10:53:00,53.3,43.8,29.88,NNW,342,0.0,8.0,70,0.00,,---,0.00,VWS V14.00,2013-04-07 15:53:00,
2013-04-07 10:58:00,53.7,43.8,29.88,NNW,342,0.0,8.0,69,0.00,,---,0.00,VWS V14.00,2013-04-07 15:58:00,
2013-04-07 11:00:00,50.0,42.7,29.88,NNW,338,3.0,9.0,76,0.00,,---,0.00,VWS V14.00,2013-04-07 16:00:00,
2013-04-07 11:03:00,53.9,44.0,29.88,North,0,5.0,8.0,69,0.00,,---,0.00,VWS V14.00,2013-04-07 16:03:00,
2013-04-07 11:08:00,53.7,43.0,29.88,North,356,0.0,8.0,67,0.00,,---,0.00,VWS V14.00,2013-04-07 16:08:00,
2013-04-07 11:13:00,53.8,43.5,29.89,North,356,0.0,0.0,68,0.00,,---,0.00,VWS V14.00,2013-04-07 16:13:00,
2013-04-07 11:18:00,54.4,43.7,29.89,WNW,303,5.0,5.0,67,0.00,,---,0.00,VWS V14.00,2013-04-07 16:18:00,
2013-04-07 11:23:00,54.9,43.4,29.89,WNW,295,0.0,6.0,65,0.00,,---,0.00,VWS V14.00,2013-04-07 16:23:00,
2013-04-07 11:28:00,55.3,44.5,29.90,NW,326,0.0,6.0,67,0.00,,---,0.00,VWS V14.00,2013-04-07 16:28:00,
2013-04-07 11:30:00,52.2,43.5,29.88,North,0,2.0,9.0,72,0.00,,---,0.00,VWS V14.00,2013-04-07 16:30:00,
2013-04-07 11:33:00,56.0,44.0,29.90,NNW,347,0.0,6.0,64,0.00,,---,0.00,VWS V14.00,2013-04-07 16:33:00,
2013-04-07 11:38:00,55.7,43.3,29.90,North,358,0.0,6.0,63,0.00,,---,0.00,VWS V14.00,2013-04-07 16:38:00,
2013-04-07 11:43:00,56.1,43.7,29.89,NW,313,0.0,0.0,63,0.00,,---,0.00,VWS V14.00,2013-04-07 16:43:00,
2013-04-07 11:48:00,56.1,42.8,29.89,NNW,341,0.0,5.0,61,0.00,,---,0.00,VWS V14.00,2013-04-07 16:48:00,
2013-04-07 11:53:00,57.2,43.9,29.89,NNW,335,0.0,5.0,61,0.00,,---,0.00,VWS V14.00,2013-04-07 16:53:00,
2013-04-07 11:58:00,56.4,43.1,29.89,NNW,330,0.0,5.0,61,0.00,,---,0.00,VWS V14.00,2013-04-07 16:58:00,
2013-04-07 12:00:00,53.8,43.9,29.89,NNW,338,1.0,8.0,69,0.00,,---,0.00,VWS V14.00,2013-04-07 17:00:00,
2013-04-07 12:03:00,56.9,43.2,29.89,NNW,330,0.0,5.0,60,0.00,,---,0.00,VWS V14.00,2013-04-07 17:03:00,
2013-04-07 12:08:00,57.7,44.4,29.89,NNW,330,0.0,5.0,61,0.00,,---,0.00,VWS V14.00,2013-04-07 17:08:00,
2013-04-07 12:13:00,58.2,44.0,29.89,NNW,330,5.0,7.0,59,0.00,,---,0.00,VWS V14.00,2013-04-07 17:13:00,
2013-04-07 12:18:00,57.5,42.8,29.89,NW,317,5.0,9.0,58,0.00,,---,0.00,VWS V14.00,2013-04-07 17:18:00,
2013-04-07 12:23:00,57.8,43.6,29.89,NNW,332,0.0,9.0,59,0.00,,---,0.00,VWS V14.00,2013-04-07 17:23:00,
2013-04-07 12:28:00,58.0,42.9,29.89,West,276,5.0,9.0,57,0.00,,---,0.00,VWS V14.00,2013-04-07 17:28:00,
2013-04-07 12:30:00,55.8,43.8,29.89,NNW,338,1.0,6.0,64,0.00,,---,0.00,VWS V14.00,2013-04-07 17:30:00,
2013-04-07 12:33:00,58.6,43.0,29.89,WNW,293,6.0,9.0,56,0.00,,---,0.00,VWS V14.00,2013-04-07 17:33:00,
2013-04-07 12:38:00,58.8,43.6,29.89,NW,307,7.0,9.0,57,0.00,,---,0.00,VWS V14.00,2013-04-07 17:38:00,
2013-04-07 12:43:00,59.0,43.3,29.89,West,269,0.0,7.0,56,0.00,,---,0.00,VWS V14.00,2013-04-07 17:43:00,
2013-04-07 12:49:00,58.9,43.2,29.89,West,259,0.0,7.0,56,0.00,,---,0.00,VWS V14.00,2013-04-07 17:49:00,
2013-04-07 12:54:00,59.6,43.9,29.89,WNW,293,0.0,7.0,56,0.00,,---,0.00,VWS V14.00,2013-04-07 17:54:00,
2013-04-07 12:59:00,60.5,43.3,29.88,WNW,298,0.0,7.0,53,0.00,,---,0.00,VWS V14.00,2013-04-07 17:59:00,
2013-04-07 13:00:00,58.0,44.2,29.89,NNW,338,0.0,6.0,60,0.00,,---,0.00,VWS V14.00,2013-04-07 18:00:00,
2013-04-07 13:04:00,61.1,42.8,29.88,NE,56,0.0,7.0,51,0.00,,---,0.00,VWS V14.00,2013-04-07 18:04:00,
2013-04-07 13:09:00,61.3,43.0,29.88,NNE,23,0.0,7.0,51,0.00,,---,0.00,VWS V14.00,2013-04-07 18:09:00,
2013-04-07 13:14:00,61.1,43.4,29.88,NNE,32,0.0,1.0,52,0.00,,---,0.00,VWS V14.00,2013-04-07 18:14:00,
2013-04-07 13:20:00,60.9,43.2,29.88,North,359,0.0,7.0,52,0.00,,---,0.00,VWS V14.00,2013-04-07 18:20:00,
2013-04-07 13:25:00,61.4,42.6,29.88,NNW,340,8.0,8.0,50,0.00,,---,0.00,VWS V14.00,2013-04-07 18:25:00,
2013-04-07 13:30:00,60.8,42.1,29.88,NW,305,0.0,8.0,50,0.00,,---,0.00,VWS V14.00,2013-04-07 18:30:00,
2013-04-07 13:35:00,60.8,42.6,29.88,NW,306,0.0,8.0,51,0.00,,---,0.00,VWS V14.00,2013-04-07 18:35:00,
2013-04-07 13:40:00,61.0,42.8,29.88,NW,324,0.0,8.0,51,0.00,,---,0.00,VWS V14.00,2013-04-07 18:40:00,
2013-04-07 13:45:00,61.3,43.0,29.88,NW,324,0.0,0.0,51,0.00,,---,0.00,VWS V14.00,2013-04-07 18:45:00,
2013-04-07 13:50:00,62.0,42.6,29.88,North,351,2.0,7.0,49,0.00,,---,0.00,VWS V14.00,2013-04-07 18:50:00,
2013-04-07 13:55:00,62.5,43.1,29.88,North,351,0.0,7.0,49,0.00,,---,0.00,VWS V14.00,2013-04-07 18:55:00,
2013-04-07 14:00:00,62.4,43.0,29.88,North,352,1.0,7.0,49,0.00,,---,0.00,VWS V14.00,2013-04-07 19:00:00,
2013-04-07 14:05:00,62.5,42.6,29.88,NNE,26,0.0,7.0,48,0.00,,---,0.00,VWS V14.00,2013-04-07 19:05:00,
2013-04-07 14:10:00,62.5,42.6,29.88,North,1,0.0,7.0,48,0.00,,---,0.00,VWS V14.00,2013-04-07 19:10:00,
2013-04-07 14:15:00,63.0,43.0,29.88,NNW,331,4.0,8.0,48,0.00,,---,0.00,VWS V14.00,2013-04-07 19:15:00,
2013-04-07 14:20:00,63.0,43.0,29.88,North,358,0.0,8.0,48,0.00,,---,0.00,VWS V14.00,2013-04-07 19:20:00,
2013-04-07 14:25:00,62.9,42.9,29.88,NNW,339,4.0,8.0,48,0.00,,---,0.00,VWS V14.00,2013-04-07 19:25:00,
2013-04-07 14:30:00,63.0,42.5,29.87,NNW,339,0.0,8.0,47,0.00,,---,0.00,VWS V14.00,2013-04-07 19:30:00,
2013-04-07 14:35:00,63.4,42.8,29.87,NW,305,0.0,8.0,47,0.00,,---,0.00,VWS V14.00,2013-04-07 19:35:00,
2013-04-07 14:40:00,63.9,43.3,29.87,NW,307,0.0,8.0,47,0.00,,---,0.00,VWS V14.00,2013-04-07 19:40:00,
2013-04-07 14:45:00,64.1,42.3,29.88,WSW,257,0.0,7.0,45,0.00,,---,0.00,VWS V14.00,2013-04-07 19:45:00,
2013-04-07 14:50:00,63.8,42.6,29.88,WSW,257,0.0,7.0,46,0.00,,---,0.00,VWS V14.00,2013-04-07 19:50:00,
2013-04-07 14:55:00,64.5,43.3,29.88,North,359,0.0,7.0,46,0.00,,---,0.00,VWS V14.00,2013-04-07 19:55:00,
2013-04-07 15:00:00,64.8,43.0,29.87,ESE,123,5.0,7.0,45,0.00,,---,0.00,VWS V14.00,2013-04-07 20:00:00,
2013-04-07 15:05:00,64.8,43.6,29.87,East,95,0.0,7.0,46,0.00,,---,0.00,VWS V14.00,2013-04-07 20:05:00,
2013-04-07 15:10:00,64.7,44.6,29.87,NE,50,0.0,7.0,48,0.00,,---,0.00,VWS V14.00,2013-04-07 20:10:00,
2013-04-07 15:15:00,65.2,43.9,29.86,NE,51,1.0,5.0,46,0.00,,---,0.00,VWS V14.00,2013-04-07 20:15:00,
2013-04-07 15:20:00,65.6,44.3,29.86,NE,43,0.0,5.0,46,0.00,,---,0.00,VWS V14.00,2013-04-07 20:20:00,
2013-04-07 15:25:00,65.0,43.2,29.86,East,84,0.0,7.0,45,0.00,,---,0.00,VWS V14.00,2013-04-07 20:25:00,
2013-04-07 15:30:00,65.2,44.5,29.86,East,91,0.0,7.0,47,0.00,,---,0.00,VWS V14.00,2013-04-07 20:30:00,
2013-04-07 15:35:00,65.3,44.6,29.86,East,101,0.0,7.0,47,0.00,,---,0.00,VWS V14.00,2013-04-07 20:35:00,
2013-04-07 15:40:00,65.4,44.7,29.86,SSE,158,0.0,7.0,47,0.00,,---,0.00,VWS V14.00,2013-04-07 20:40:00,
2013-04-07 15:45:00,65.5,43.6,29.86,ESE,102,0.0,5.0,45,0.00,,---,0.00,VWS V14.00,2013-04-07 20:45:00,
2013-04-07 15:50:00,64.9,43.7,29.86,SE,140,0.0,6.0,46,0.00,,---,0.00,VWS V14.00,2013-04-07 20:50:00,
2013-04-07 15:55:00,65.8,45.0,29.86,ENE,70,0.0,6.0,47,0.00,,---,0.00,VWS V14.00,2013-04-07 20:55:00,
2013-04-07 16:00:00,65.2,43.3,29.86,ENE,76,0.0,6.0,45,0.00,,---,0.00,VWS V14.00,2013-04-07 21:00:00,
2013-04-07 16:05:00,64.9,43.7,29.86,NE,53,2.0,6.0,46,0.00,,---,0.00,VWS V14.00,2013-04-07 21:05:00,
2013-04-07 16:10:00,64.9,43.1,29.86,ESE,103,0.0,6.0,45,0.00,,---,0.00,VWS V14.00,2013-04-07 21:10:00,
2013-04-07 16:16:00,65.6,44.3,29.86,NE,49,0.0,3.0,46,0.00,,---,0.00,VWS V14.00,2013-04-07 21:16:00,
2013-04-07 16:21:00,65.2,43.3,29.86,NE,50,0.0,3.0,45,0.00,,---,0.00,VWS V14.00,2013-04-07 21:21:00,
2013-04-07 16:26:00,65.2,43.3,29.86,East,91,0.0,6.0,45,0.00,,---,0.00,VWS V14.00,2013-04-07 21:26:00,
2013-04-07 16:30:00,65.6,44.8,29.86,NE,45,1.0,7.0,47,0.00,,---,0.00,VWS V14.00,2013-04-07 21:30:00,
2013-04-07 16:31:00,65.2,43.9,29.86,East,101,0.0,6.0,46,0.00,,---,0.00,VWS V14.00,2013-04-07 21:31:00,
2013-04-07 16:36:00,65.7,43.8,29.86,East,101,0.0,6.0,45,0.00,,---,0.00,VWS V14.00,2013-04-07 21:36:00,
2013-04-07 16:41:00,66.1,44.2,29.86,ESE,103,1.0,6.0,45,0.00,,---,0.00,VWS V14.00,2013-04-07 21:41:00,
2013-04-07 16:47:00,66.4,43.8,29.86,ESE,103,0.0,1.0,44,0.00,,---,0.00,VWS V14.00,2013-04-07 21:47:00,
2013-04-07 16:52:00,66.3,44.3,29.86,NE,48,0.0,6.0,45,0.00,,---,0.00,VWS V14.00,2013-04-07 21:52:00,
2013-04-07 16:57:00,66.2,44.2,29.85,NE,51,0.0,6.0,45,0.00,,---,0.00,VWS V14.00,2013-04-07 21:57:00,
2013-04-07 17:00:00,65.1,43.8,29.86,East,90,0.0,7.0,46,0.00,,---,0.00,VWS V14.00,2013-04-07 22:00:00,
2013-04-07 17:02:00,66.6,44.0,29.85,ENE,64,1.0,6.0,44,0.00,,---,0.00,VWS V14.00,2013-04-07 22:02:00,
2013-04-07 17:07:00,66.2,44.2,29.85,East,96,0.0,6.0,45,0.00,,---,0.00,VWS V14.00,2013-04-07 22:07:00,
2013-04-07 17:12:00,66.6,44.0,29.85,ESE,107,0.0,0.0,44,0.00,,---,0.00,VWS V14.00,2013-04-07 22:12:00,
2013-04-07 17:17:00,66.9,43.7,29.85,ESE,104,0.0,1.0,43,0.00,,---,0.00,VWS V14.00,2013-04-07 22:17:00,
2013-04-07 17:22:00,67.1,43.9,29.85,ESE,120,0.0,6.0,43,0.00,,---,0.00,VWS V14.00,2013-04-07 22:22:00,
2013-04-07 17:27:00,67.0,43.8,29.84,ESE,122,0.0,6.0,43,0.00,,---,0.00,VWS V14.00,2013-04-07 22:27:00,
2013-04-07 17:30:00,66.1,43.6,29.86,East,90,0.0,6.0,44,0.00,,---,0.00,VWS V14.00,2013-04-07 22:30:00,
2013-04-07 17:32:00,67.3,44.7,29.84,ESE,122,1.0,6.0,44,0.00,,---,0.00,VWS V14.00,2013-04-07 22:32:00,
2013-04-07 17:37:00,67.4,44.2,29.84,ENE,63,3.0,6.0,43,0.00,,---,0.00,VWS V14.00,2013-04-07 22:37:00,
2013-04-07 17:42:00,67.5,44.2,29.84,ESE,104,0.0,2.0,43,0.00,,---,0.00,VWS V14.00,2013-04-07 22:42:00,
2013-04-07 17:48:00,67.5,44.2,29.84,ESE,104,0.0,3.0,43,0.00,,---,0.00,VWS V14.00,2013-04-07 22:48:00,
2013-04-07 17:53:00,67.6,44.3,29.84,East,90,0.0,3.0,43,0.00,,---,0.00,VWS V14.00,2013-04-07 22:53:00,
2013-04-07 17:58:00,67.6,43.7,29.84,East,96,0.0,5.0,42,0.00,,---,0.00,VWS V14.00,2013-04-07 22:58:00,
2013-04-07 18:00:00,66.7,44.1,29.85,NE,45,0.0,6.0,44,0.00,,---,0.00,VWS V14.00,2013-04-07 23:00:00,
2013-04-07 18:03:00,67.5,44.2,29.84,ESE,109,0.0,5.0,43,0.00,,---,0.00,VWS V14.00,2013-04-07 23:03:00,
2013-04-07 18:08:00,67.5,44.2,29.84,ESE,113,0.0,5.0,43,0.00,,---,0.00,VWS V14.00,2013-04-07 23:08:00,
2013-04-07 18:14:00,67.4,44.2,29.83,East,99,0.0,5.0,43,0.00,,---,0.00,VWS V14.00,2013-04-07 23:14:00,
2013-04-07 18:19:00,67.2,44.0,29.83,ESE,113,5.0,5.0,43,0.00,,---,0.00,VWS V14.00,2013-04-07 23:19:00,
2013-04-07 18:24:00,67.0,43.8,29.83,ESE,112,0.0,5.0,43,0.00,,---,0.00,VWS V14.00,2013-04-07 23:24:00,
2013-04-07 18:29:00,66.7,44.1,29.83,ENE,77,0.0,5.0,44,0.00,,---,0.00,VWS V14.00,2013-04-07 23:29:00,
2013-04-07 18:30:00,67.5,44.2,29.84,ESE,112,0.0,6.0,43,0.00,,---,0.00,VWS V14.00,2013-04-07 23:30:00,
2013-04-07 18:34:00,66.5,43.9,29.83,East,94,0.0,5.0,44,0.00,,---,0.00,VWS V14.00,2013-04-07 23:34:00,
2013-04-07 18:39:00,66.4,44.4,29.83,ENE,75,0.0,6.0,45,0.00,,---,0.00,VWS V14.00,2013-04-07 23:39:00,
2013-04-07 18:44:00,66.3,44.3,29.83,ENE,75,0.0,0.0,45,0.00,,---,0.00,VWS V14.00,2013-04-07 23:44:00,
2013-04-07 18:49:00,66.2,44.2,29.83,ENE,75,0.0,1.0,45,0.00,,---,0.00,VWS V14.00,2013-04-07 23:49:00,
2013-04-07 18:54:00,66.0,44.1,29.83,East,82,0.0,1.0,45,0.00,,---,0.00,VWS V14.00,2013-04-07 23:54:00,
2013-04-07 18:59:00,65.8,43.9,29.83,East,80,0.0,1.0,45,0.00,,---,0.00,VWS V14.00,2013-04-07 23:59:00,
2013-04-07 19:00:00,67.5,44.2,29.83,East,90,0.0,5.0,43,0.00,,---,0.00,VWS V14.00,2013-04-08 00:00:00,
2013-04-07 19:04:00,65.6,44.3,29.83,East,80,0.0,1.0,46,0.00,,---,0.00,VWS V14.00,2013-04-08 00:04:00,
2013-04-07 19:09:00,65.4,44.1,29.83,East,80,0.0,1.0,46,0.00,,---,0.00,VWS V14.00,2013-04-08 00:09:00,
2013-04-07 19:15:00,65.2,43.9,29.83,East,80,0.0,0.0,46,0.00,,---,0.00,VWS V14.00,2013-04-08 00:15:00,
2013-04-07 19:20:00,64.9,44.2,29.83,ENE,75,0.0,1.0,47,0.00,,---,0.00,VWS V14.00,2013-04-08 00:20:00,
2013-04-07 19:25:00,64.7,44.0,29.83,ENE,75,0.0,1.0,47,0.00,,---,0.00,VWS V14.00,2013-04-08 00:25:00,
2013-04-07 19:30:00,64.4,43.8,29.82,ENE,75,0.0,1.0,47,0.00,,---,0.00,VWS V14.00,2013-04-08 00:30:00,
2013-04-07 19:35:00,64.0,43.9,29.82,ENE,75,0.0,1.0,48,0.00,,---,0.00,VWS V14.00,2013-04-08 00:35:00,
2013-04-07 19:40:00,63.8,43.8,29.82,ENE,75,0.0,1.0,48,0.00,,---,0.00,VWS V14.00,2013-04-08 00:40:00,
2013-04-07 19:45:00,63.4,43.9,29.82,ENE,76,0.0,4.0,49,0.00,,---,0.00,VWS V14.00,2013-04-08 00:45:00,
2013-04-07 19:50:00,63.2,44.3,29.82,ENE,76,0.0,4.0,50,0.00,,---,0.00,VWS V14.00,2013-04-08 00:50:00,
2013-04-07 19:55:00,62.9,44.0,29.82,ENE,76,0.0,4.0,50,0.00,,---,0.00,VWS V14.00,2013-04-08 00:55:00,
2013-04-07 20:00:00,62.6,44.2,29.82,ENE,76,0.0,4.0,51,0.00,,---,0.00,VWS V14.00,2013-04-08 01:00:00,
2013-04-07 20:05:00,62.4,44.0,29.82,ENE,76,0.0,4.0,51,0.00,,---,0.00,VWS V14.00,2013-04-08 01:05:00,
2013-04-07 20:10:00,62.2,43.9,29.82,East,82,0.0,4.0,51,0.00,,---,0.00,VWS V14.00,2013-04-08 01:10:00,
2013-04-07 20:15:00,62.0,44.2,29.82,East,86,0.0,5.0,52,0.00,,---,0.00,VWS V14.00,2013-04-08 01:15:00,
2013-04-07 20:21:00,61.7,43.9,29.82,ENE,74,5.0,6.0,52,0.00,,---,0.00,VWS V14.00,2013-04-08 01:21:00,
2013-04-07 20:26:00,61.6,43.8,29.81,East,93,0.0,8.0,52,0.00,,---,0.00,VWS V14.00,2013-04-08 01:26:00,
2013-04-07 20:30:00,63.7,44.2,29.82,ENE,68,0.0,1.0,49,0.00,,---,0.00,VWS V14.00,2013-04-08 01:30:00,
2013-04-07 20:31:00,61.5,43.7,29.81,East,93,0.0,8.0,52,0.00,,---,0.00,VWS V14.00,2013-04-08 01:31:00,
2013-04-07 20:36:00,61.3,44.0,29.81,ESE,104,0.0,8.0,53,0.00,,---,0.00,VWS V14.00,2013-04-08 01:36:00,
2013-04-07 20:41:00,61.1,44.3,29.81,East,96,0.0,8.0,54,0.00,,---,0.00,VWS V14.00,2013-04-08 01:41:00,
2013-04-07 20:47:00,60.8,45.0,29.81,East,86,0.0,7.0,56,0.00,,---,0.00,VWS V14.00,2013-04-08 01:47:00,
2013-04-07 20:52:00,60.4,45.1,29.81,East,87,0.0,7.0,57,0.00,,---,0.00,VWS V14.00,2013-04-08 01:52:00,
2013-04-07 20:57:00,60.0,45.2,29.81,East,90,0.0,7.0,58,0.00,,---,0.00,VWS V14.00,2013-04-08 01:57:00,
2013-04-07 21:00:00,62.1,43.8,29.82,ENE,68,0.0,4.0,51,0.00,,---,0.00,VWS V14.00,2013-04-08 02:00:00,
2013-04-07 21:02:00,59.7,46.2,29.81,East,97,0.0,8.0,61,0.00,,---,0.00,VWS V14.00,2013-04-08 02:02:00,
2013-04-07 21:07:00,59.5,45.2,29.81,East,86,0.0,8.0,59,0.00,,---,0.00,VWS V14.00,2013-04-08 02:07:00,
2013-04-07 21:12:00,59.3,45.4,29.81,ESE,105,0.0,0.0,60,0.00,,---,0.00,VWS V14.00,2013-04-08 02:12:00,
2013-04-07 21:17:00,59.1,45.2,29.81,ESE,109,0.0,6.0,60,0.00,,---,0.00,VWS V14.00,2013-04-08 02:17:00,
2013-04-07 21:22:00,59.0,44.7,29.81,ESE,105,0.0,6.0,59,0.00,,---,0.00,VWS V14.00,2013-04-08 02:22:00,
2013-04-07 21:27:00,58.9,44.6,29.82,East,100,0.0,7.0,59,0.00,,---,0.00,VWS V14.00,2013-04-08 02:27:00,
2013-04-07 21:30:00,61.1,44.8,29.81,East,90,0.0,8.0,55,0.00,,---,0.00,VWS V14.00,2013-04-08 02:30:00,
2013-04-07 21:32:00,58.8,44.5,29.82,ESE,115,4.0,7.0,59,0.00,,---,0.00,VWS V14.00,2013-04-08 02:32:00,
2013-04-07 21:37:00,58.7,44.4,29.82,East,91,0.0,7.0,59,0.00,,---,0.00,VWS V14.00,2013-04-08 02:37:00,
2013-04-07 21:43:00,58.5,44.2,29.82,ESE,120,0.0,6.0,59,0.00,,---,0.00,VWS V14.00,2013-04-08 02:43:00,
2013-04-07 21:49:00,58.5,43.8,29.82,ESE,117,0.0,9.0,58,0.00,,---,0.00,VWS V14.00,2013-04-08 02:49:00,
2013-04-07 21:54:00,58.5,43.3,29.82,East,85,0.0,9.0,57,0.00,,---,0.00,VWS V14.00,2013-04-08 02:54:00,
2013-04-07 21:59:00,58.5,42.9,29.82,ESE,103,0.0,9.0,56,0.00,,---,0.00,VWS V14.00,2013-04-08 02:59:00,
2013-04-07 22:00:00,59.3,45.4,29.81,East,90,1.0,8.0,60,0.00,,---,0.00,VWS V14.00,2013-04-08 03:00:00,
2013-04-07 22:04:00,58.4,42.8,29.82,ESE,108,7.0,9.0,56,0.00,,---,0.00,VWS V14.00,2013-04-08 03:04:00,
2013-04-07 22:09:00,58.3,42.7,29.82,ENE,77,1.0,9.0,56,0.00,,---,0.00,VWS V14.00,2013-04-08 03:09:00,
2013-04-07 22:14:00,58.1,43.0,29.82,East,99,0.0,5.0,57,0.00,,---,0.00,VWS V14.00,2013-04-08 03:14:00,
2013-04-07 22:20:00,57.8,42.7,29.82,ESE,103,1.0,8.0,57,0.00,,---,0.00,VWS V14.00,2013-04-08 03:20:00,
2013-04-07 22:25:00,57.6,42.5,29.82,East,100,0.0,8.0,57,0.00,,---,0.00,VWS V14.00,2013-04-08 03:25:00,
2013-04-07 22:30:00,57.5,42.4,29.80,ESE,119,6.0,8.0,57,0.00,,---,0.00,VWS V14.00,2013-04-08 03:30:00,
2013-04-07 22:35:00,57.4,42.3,29.80,ESE,107,0.0,12.0,57,0.00,,---,0.00,VWS V14.00,2013-04-08 03:35:00,
2013-04-07 22:40:00,57.4,42.3,29.80,ESE,117,0.0,12.0,57,0.00,,---,0.00,VWS V14.00,2013-04-08 03:40:00,
2013-04-07 22:46:00,57.3,42.7,29.80,ESE,122,0.0,9.0,58,0.00,,---,0.00,VWS V14.00,2013-04-08 03:46:00,
2013-04-07 22:52:00,57.2,42.6,29.80,ESE,105,4.0,9.0,58,0.00,,---,0.00,VWS V14.00,2013-04-08 03:52:00,
2013-04-07 22:57:00,57.0,42.4,29.79,ENE,72,6.0,9.0,58,0.00,,---,0.00,VWS V14.00,2013-04-08 03:57:00,
2013-04-07 23:00:00,57.0,42.4,29.79,East,97,0.0,9.0,58,0.00,,---,0.00,VWS V14.00,2013-04-08 04:00:00,
2013-04-07 23:05:00,56.9,42.3,29.79,East,96,0.0,9.0,58,0.00,,---,0.00,VWS V14.00,2013-04-08 04:05:00,
2013-04-07 23:10:00,57.1,42.0,29.79,ESE,104,1.0,13.0,57,0.00,,---,0.00,VWS V14.00,2013-04-08 04:10:00,
2013-04-07 23:15:00,57.4,41.8,29.78,NE,53,1.0,12.0,56,0.00,,---,0.00,VWS V14.00,2013-04-08 04:15:00,
2013-04-07 23:20:00,57.5,41.9,29.78,East,101,0.0,12.0,56,0.00,,---,0.00,VWS V14.00,2013-04-08 04:20:00,
2013-04-07 23:25:00,57.4,41.4,29.78,ESE,106,4.0,13.0,55,0.00,,---,0.00,VWS V14.00,2013-04-08 04:25:00,
2013-04-07 23:30:00,57.3,41.8,29.78,ESE,121,0.0,13.0,56,0.00,,---,0.00,VWS V14.00,2013-04-08 04:30:00,
2013-04-07 23:35:00,57.0,41.9,29.78,ESE,116,7.0,13.0,57,0.00,,---,0.00,VWS V14.00,2013-04-08 04:35:00,
2013-04-07 23:40:00,56.8,41.8,29.78,East,97,0.0,13.0,57,0.00,,---,0.00,VWS V14.00,2013-04-08 04:40:00,
2013-04-07 23:45:00,56.5,41.5,29.77,SE,129,0.0,11.0,57,0.00,,---,0.00,VWS V14.00,2013-04-08 04:45:00,
2013-04-07 23:50:00,56.3,41.7,29.77,ESE,110,0.0,11.0,58,0.00,,---,0.00,VWS V14.00,2013-04-08 04:50:00,
2013-04-07 23:55:00,56.0,41.5,29.77,ESE,122,3.0,11.0,58,0.00,,---,0.00,VWS V14.00,2013-04-08 04:55:00,